Time,TemperatureF,DewpointF,PressureIn,WindDirection,WindDirectionDegrees,WindSpeedMPH,WindSpeedGustMPH,Humidity,HourlyPrecipIn,Conditions,Clouds,dailyrainin,SoftwareType,DateUTC
2013-04-12 00:00:00,31.3,28.8,29.80,SSE,154,4.0,5.0,90,0.00,,,0.54,meteohub,2013-04-12 05:00:00,
2013-04-12 00:05:00,31.3,28.8,29.79,SSE,153,3.0,9.0,90,0.00,,,0.00,meteohub,2013-04-12 05:05:00,
2013-04-12 00:10:00,31.1,28.6,29.80,SSE,154,1.0,9.0,90,0.00,,,0.00,meteohub,2013-04-12 05:10:00,
2013-04-12 00:15:00,31.1,28.6,29.80,SSE,153,2.0,9.0,90,0.00,,,0.00,meteohub,2013-04-12 05:15:00,
2013-04-12 00:20:00,30.9,28.4,29.80,SSE,154,1.0,8.0,90,0.00,,,0.00,meteohub,2013-04-12 05:20:00,
2013-04-12 00:25:00,30.9,28.4,29.80,SSE,154,2.0,6.0,90,0.00,,,0.00,meteohub,2013-04-12 05:25:00,
2013-04-12 00:30:00,30.9,28.4,29.80,SSE,154,3.0,6.0,90,0.00,,,0.00,meteohub,2013-04-12 05:30:00,
2013-04-12 00:35:00,30.9,28.4,29.80,SSE,154,5.0,6.0,90,0.00,,,0.00,meteohub,2013-04-12 05:35:00,
2013-04-12 00:40:00,30.9,28.4,29.80,SSE,154,3.0,7.0,90,0.00,,,0.00,meteohub,2013-04-12 05:40:00,
2013-04-12 00:45:00,30.9,28.4,29.80,SSE,154,6.0,7.0,90,0.00,,,0.00,meteohub,2013-04-12 05:45:00,
2013-04-12 00:51:00,30.9,28.4,29.79,SSE,154,3.0,9.0,90,0.00,,,0.00,meteohub,2013-04-12 05:51:00,
2013-04-12 00:56:00,30.7,28.2,29.80,SSE,154,3.0,9.0,90,0.00,,,0.00,meteohub,2013-04-12 05:56:00,
2013-04-12 01:01:00,30.7,28.2,29.80,SSE,153,2.0,9.0,90,0.00,,,0.00,meteohub,2013-04-12 06:01:00,
2013-04-12 01:06:00,30.7,28.2,29.80,SSE,154,5.0,9.0,90,0.00,,,0.00,meteohub,2013-04-12 06:06:00,
2013-04-12 01:11:00,30.6,28.0,29.80,SSE,154,2.0,6.0,90,0.00,,,0.00,meteohub,2013-04-12 06:11:00,
2013-04-12 01:16:00,30.6,28.0,29.80,SSE,154,3.0,9.0,90,0.00,,,0.00,meteohub,2013-04-12 06:16:00,
2013-04-12 01:21:00,30.6,28.0,29.80,SSE,154,4.0,9.0,90,0.00,,,0.00,meteohub,2013-04-12 06:21:00,
2013-04-12 01:26:00,30.6,28.0,29.80,SSE,153,4.0,9.0,90,0.00,,,0.00,meteohub,2013-04-12 06:26:00,
2013-04-12 01:31:00,30.4,27.9,29.80,SSE,154,5.0,9.0,90,0.00,,,0.00,meteohub,2013-04-12 06:31:00,
2013-04-12 01:36:00,30.4,27.9,29.80,SSE,154,4.0,9.0,90,0.00,,,0.00,meteohub,2013-04-12 06:36:00,
2013-04-12 01:41:00,30.4,27.9,29.80,SSE,154,6.0,10.0,90,0.00,,,0.00,meteohub,2013-04-12 06:41:00,
2013-04-12 01:47:00,30.4,27.9,29.79,SSE,154,3.0,10.0,90,0.00,,,0.00,meteohub,2013-04-12 06:47:00,
2013-04-12 01:52:00,30.4,27.9,29.80,SSE,153,4.0,9.0,90,0.00,,,0.00,meteohub,2013-04-12 06:52:00,
2013-04-12 01:57:00,30.4,27.9,29.79,SSE,154,0.0,8.0,90,0.00,,,0.00,meteohub,2013-04-12 06:57:00,
2013-04-12 02:02:00,30.4,27.9,29.79,SSE,154,2.0,7.0,90,0.00,,,0.00,meteohub,2013-04-12 07:02:00,
2013-04-12 02:07:00,30.4,27.9,29.79,SSE,153,0.0,11.0,90,0.00,,,0.00,meteohub,2013-04-12 07:07:00,
2013-04-12 02:12:00,30.2,27.7,29.79,SSE,153,4.0,11.0,90,0.00,,,0.00,meteohub,2013-04-12 07:12:00,
2013-04-12 02:17:00,30.2,27.7,29.79,SSE,153,5.0,11.0,90,0.00,,,0.00,meteohub,2013-04-12 07:17:00,
2013-04-12 02:22:00,30.0,27.5,29.79,SSE,153,5.0,8.0,90,0.00,,,0.00,meteohub,2013-04-12 07:22:00,
2013-04-12 02:27:00,29.8,27.3,29.79,SSE,154,0.0,7.0,90,0.00,,,0.00,meteohub,2013-04-12 07:27:00,
2013-04-12 02:32:00,29.7,27.1,29.79,SSE,155,3.0,9.0,90,0.00,,,0.00,meteohub,2013-04-12 07:32:00,
2013-04-12 02:37:00,29.7,27.1,29.79,SSE,154,4.0,9.0,90,0.00,,,0.00,meteohub,2013-04-12 07:37:00,
2013-04-12 02:42:00,29.7,27.1,29.79,SSE,154,1.0,6.0,90,0.00,,,0.00,meteohub,2013-04-12 07:42:00,
2013-04-12 02:47:00,29.5,27.0,29.79,SSE,154,2.0,6.0,90,0.00,,,0.00,meteohub,2013-04-12 07:47:00,
2013-04-12 02:52:00,29.5,27.0,29.79,SSE,154,3.0,6.0,90,0.00,,,0.00,meteohub,2013-04-12 07:52:00,
2013-04-12 02:57:00,29.3,26.8,29.79,SSE,153,3.0,6.0,90,0.00,,,0.00,meteohub,2013-04-12 07:57:00,
2013-04-12 03:02:00,29.1,26.6,29.79,SSE,154,2.0,6.0,90,0.00,,,0.00,meteohub,2013-04-12 08:02:00,
2013-04-12 03:07:00,29.1,26.6,29.79,SSE,154,0.0,7.0,90,0.00,,,0.00,meteohub,2013-04-12 08:07:00,
2013-04-12 03:12:00,28.9,26.4,29.79,SSE,153,5.0,10.0,90,0.00,,,0.00,meteohub,2013-04-12 08:12:00,
2013-04-12 03:17:00,28.9,26.4,29.79,SSE,153,2.0,10.0,90,0.00,,,0.00,meteohub,2013-04-12 08:17:00,
2013-04-12 03:22:00,28.9,26.4,29.79,SSE,154,3.0,10.0,90,0.00,,,0.00,meteohub,2013-04-12 08:22:00,
2013-04-12 03:27:00,28.8,26.2,29.79,SSE,154,6.0,9.0,90,0.00,,,0.00,meteohub,2013-04-12 08:27:00,
2013-04-12 03:32:00,28.8,26.2,29.79,SSE,154,5.0,11.0,90,0.00,,,0.00,meteohub,2013-04-12 08:32:00,
2013-04-12 03:37:00,28.8,26.2,29.79,SSE,153,3.0,11.0,90,0.00,,,0.00,meteohub,2013-04-12 08:37:00,
2013-04-12 03:42:00,28.8,26.2,29.79,SSE,154,4.0,9.0,90,0.00,,,0.00,meteohub,2013-04-12 08:42:00,
2013-04-12 03:47:00,28.6,26.1,29.79,SSE,154,3.0,9.0,90,0.00,,,0.00,meteohub,2013-04-12 08:47:00,
2013-04-12 03:52:00,28.6,26.1,29.79,SSE,153,4.0,9.0,90,0.00,,,0.00,meteohub,2013-04-12 08:52:00,
2013-04-12 03:57:00,28.6,26.1,29.79,SSE,154,3.0,11.0,90,0.00,,,0.00,meteohub,2013-04-12 08:57:00,
2013-04-12 04:02:00,28.6,26.1,29.79,SSE,154,3.0,11.0,90,0.00,,,0.00,meteohub,2013-04-12 09:02:00,
2013-04-12 04:07:00,28.2,25.7,29.79,SSE,154,3.0,10.0,90,0.00,,,0.00,meteohub,2013-04-12 09:07:00,
2013-04-12 04:12:00,28.2,25.7,29.79,SSE,154,7.0,10.0,90,0.00,,,0.00,meteohub,2013-04-12 09:12:00,
2013-04-12 04:17:00,28.2,25.7,29.79,SSE,153,5.0,10.0,90,0.00,,,0.00,meteohub,2013-04-12 09:17:00,
2013-04-12 04:22:00,28.2,25.7,29.79,SSE,153,4.0,9.0,90,0.00,,,0.00,meteohub,2013-04-12 09:22:00,
2013-04-12 04:27:00,28.0,25.5,29.79,SSE,154,5.0,9.0,90,0.00,,,0.00,meteohub,2013-04-12 09:27:00,
2013-04-12 04:32:00,28.0,25.5,29.79,SSE,154,1.0,9.0,90,0.00,,,0.00,meteohub,2013-04-12 09:32:00,
2013-04-12 04:37:00,28.0,25.5,29.79,SSE,154,2.0,8.0,90,0.00,,,0.00,meteohub,2013-04-12 09:37:00,
2013-04-12 04:42:00,28.0,25.5,29.80,SSE,154,1.0,6.0,90,0.00,,,0.00,meteohub,2013-04-12 09:42:00,
2013-04-12 04:47:00,27.9,25.3,29.80,SSE,153,1.0,6.0,90,0.00,,,0.00,meteohub,2013-04-12 09:47:00,
2013-04-12 04:52:00,27.9,25.3,29.80,SSE,154,3.0,6.0,90,0.00,,,0.00,meteohub,2013-04-12 09:52:00,
2013-04-12 04:57:00,27.9,25.3,29.80,SSE,154,3.0,6.0,90,0.00,,,0.00,meteohub,2013-04-12 09:57:00,
2013-04-12 05:03:00,27.9,25.3,29.80,SSE,153,4.0,6.0,90,0.00,,,0.00,meteohub,2013-04-12 10:03:00,
2013-04-12 05:08:00,27.9,25.3,29.80,SSE,153,5.0,7.0,90,0.00,,,0.00,meteohub,2013-04-12 10:08:00,
2013-04-12 05:13:00,27.7,25.2,29.80,SSE,153,2.0,7.0,90,0.00,,,0.00,meteohub,2013-04-12 10:13:00,
2013-04-12 05:18:00,27.7,25.2,29.80,SSE,154,2.0,6.0,90,0.00,,,0.00,meteohub,2013-04-12 10:18:00,
2013-04-12 05:23:00,27.7,25.2,29.80,SSE,154,4.0,6.0,90,0.00,,,0.00,meteohub,2013-04-12 10:23:00,
2013-04-12 05:28:00,27.5,25.0,29.80,SSE,153,3.0,5.0,90,0.00,,,0.00,meteohub,2013-04-12 10:28:00,
2013-04-12 05:33:00,27.5,25.0,29.80,SSE,154,2.0,5.0,90,0.00,,,0.00,meteohub,2013-04-12 10:33:00,
2013-04-12 05:38:00,27.3,24.8,29.80,SSE,154,3.0,5.0,90,0.00,,,0.00,meteohub,2013-04-12 10:38:00,
2013-04-12 05:43:00,27.3,24.8,29.80,SSE,153,0.0,5.0,90,0.00,,,0.00,meteohub,2013-04-12 10:43:00,
2013-04-12 05:48:00,27.3,24.8,29.80,SSE,154,3.0,6.0,90,0.00,,,0.00,meteohub,2013-04-12 10:48:00,
2013-04-12 05:53:00,27.3,24.8,29.80,SSE,154,2.0,6.0,90,0.00,,,0.00,meteohub,2013-04-12 10:53:00,
2013-04-12 05:58:00,27.3,24.8,29.80,SSE,154,2.0,5.0,90,0.00,,,0.00,meteohub,2013-04-12 10:58:00,
2013-04-12 06:03:00,27.3,24.8,29.80,SSE,154,0.0,5.0,90,0.00,,,0.00,meteohub,2013-04-12 11:03:00,
2013-04-12 06:08:00,27.3,24.8,29.79,SSE,154,4.0,5.0,90,0.00,,,0.00,meteohub,2013-04-12 11:08:00,
2013-04-12 06:13:00,27.3,24.8,29.80,SSE,154,0.0,5.0,90,0.00,,,0.00,meteohub,2013-04-12 11:13:00,
2013-04-12 06:18:00,27.3,24.8,29.80,SSE,153,1.0,5.0,90,0.00,,,0.00,meteohub,2013-04-12 11:18:00,
2013-04-12 06:23:00,27.3,24.8,29.80,SSE,154,3.0,5.0,90,0.00,,,0.00,meteohub,2013-04-12 11:23:00,
2013-04-12 06:28:00,27.3,24.8,29.80,SSE,153,1.0,5.0,90,0.00,,,0.00,meteohub,2013-04-12 11:28:00,
2013-04-12 06:33:00,27.3,24.8,29.80,SSE,154,0.0,5.0,90,0.00,,,0.00,meteohub,2013-04-12 11:33:00,
2013-04-12 06:38:00,27.3,24.8,29.80,SSE,154,2.0,5.0,90,0.00,,,0.00,meteohub,2013-04-12 11:38:00,
2013-04-12 06:43:00,27.3,24.8,29.80,SSE,154,0.0,3.0,90,0.00,,,0.00,meteohub,2013-04-12 11:43:00,
2013-04-12 06:48:00,27.5,25.0,29.80,SSE,153,0.0,3.0,90,0.00,,,0.00,meteohub,2013-04-12 11:48:00,
2013-04-12 06:53:00,27.5,25.0,29.80,SSE,153,2.0,4.0,90,0.00,,,0.00,meteohub,2013-04-12 11:53:00,
2013-04-12 06:58:00,27.5,25.0,29.80,SSE,154,2.0,4.0,90,0.00,,,0.00,meteohub,2013-04-12 11:58:00,
2013-04-12 07:04:00,27.5,25.0,29.80,SSE,154,4.0,5.0,90,0.00,,,0.00,meteohub,2013-04-12 12:04:00,
2013-04-12 07:09:00,27.5,25.0,29.80,SSE,154,1.0,5.0,90,0.00,,,0.00,meteohub,2013-04-12 12:09:00,
2013-04-12 07:14:00,27.7,25.2,29.80,SSE,154,1.0,5.0,90,0.00,,,0.00,meteohub,2013-04-12 12:14:00,
2013-04-12 07:19:00,27.7,25.2,29.80,SSE,153,1.0,5.0,90,0.00,,,0.00,meteohub,2013-04-12 12:19:00,
2013-04-12 07:24:00,27.7,25.2,29.81,SSE,154,0.0,5.0,90,0.00,,,0.00,meteohub,2013-04-12 12:24:00,
2013-04-12 07:29:00,27.7,25.2,29.81,SSE,153,4.0,5.0,90,0.00,,,0.00,meteohub,2013-04-12 12:29:00,
2013-04-12 07:34:00,27.9,25.3,29.81,SSE,154,4.0,5.0,90,0.00,,,0.00,meteohub,2013-04-12 12:34:00,
2013-04-12 07:39:00,27.9,25.3,29.80,SSE,154,0.0,5.0,90,0.00,,,0.00,meteohub,2013-04-12 12:39:00,
2013-04-12 07:44:00,27.9,25.3,29.80,SSE,154,1.0,5.0,90,0.00,,,0.00,meteohub,2013-04-12 12:44:00,
2013-04-12 07:49:00,28.0,25.5,29.80,SSE,154,2.0,5.0,90,0.00,,,0.00,meteohub,2013-04-12 12:49:00,
2013-04-12 07:54:00,28.0,25.5,29.80,SSE,154,3.0,5.0,90,0.00,,,0.00,meteohub,2013-04-12 12:54:00,
2013-04-12 07:59:00,28.0,25.5,29.80,SSE,154,3.0,5.0,90,0.00,,,0.00,meteohub,2013-04-12 12:59:00,
2013-04-12 08:04:00,28.2,25.7,29.80,SSE,154,3.0,5.0,90,0.00,,,0.00,meteohub,2013-04-12 13:04:00,
2013-04-12 08:09:00,28.6,26.1,29.81,SSE,153,3.0,6.0,90,0.00,,,0.00,meteohub,2013-04-12 13:09:00,
2013-04-12 08:14:00,28.6,26.1,29.81,SSE,154,1.0,5.0,90,0.00,,,0.00,meteohub,2013-04-12 13:14:00,
2013-04-12 08:19:00,28.8,26.2,29.81,SSE,154,2.0,5.0,90,0.00,,,0.00,meteohub,2013-04-12 13:19:00,
2013-04-12 08:24:00,28.8,26.2,29.81,SSE,154,4.0,5.0,90,0.00,,,0.00,meteohub,2013-04-12 13:24:00,
2013-04-12 08:29:00,28.8,26.2,29.81,SSE,154,2.0,5.0,90,0.00,,,0.00,meteohub,2013-04-12 13:29:00,
2013-04-12 08:34:00,28.9,26.4,29.81,SSE,154,2.0,7.0,90,0.00,,,0.00,meteohub,2013-04-12 13:34:00,
2013-04-12 08:39:00,29.1,26.6,29.81,SSE,153,3.0,7.0,90,0.00,,,0.00,meteohub,2013-04-12 13:39:00,
2013-04-12 08:44:00,29.5,27.0,29.81,SSE,153,3.0,7.0,90,0.00,,,0.00,meteohub,2013-04-12 13:44:00,
2013-04-12 08:49:00,29.5,27.0,29.81,SSE,154,3.0,5.0,90,0.00,,,0.00,meteohub,2013-04-12 13:49:00,
2013-04-12 08:54:00,29.7,27.1,29.81,SSE,154,1.0,5.0,90,0.00,,,0.00,meteohub,2013-04-12 13:54:00,
2013-04-12 08:59:00,29.8,27.0,29.81,SSE,154,3.0,5.0,89,0.00,,,0.00,meteohub,2013-04-12 13:59:00,
2013-04-12 09:04:00,29.8,27.0,29.81,SSE,153,3.0,5.0,89,0.00,,,0.00,meteohub,2013-04-12 14:04:00,
2013-04-12 09:09:00,29.8,27.0,29.81,SSE,154,4.0,5.0,89,0.00,,,0.00,meteohub,2013-04-12 14:09:00,
2013-04-12 09:14:00,29.8,27.0,29.82,SSE,154,2.0,5.0,89,0.00,,,0.00,meteohub,2013-04-12 14:14:00,
2013-04-12 09:20:00,29.8,27.0,29.82,SSE,154,3.0,5.0,89,0.00,,,0.00,meteohub,2013-04-12 14:20:00,
2013-04-12 09:25:00,30.0,27.1,29.81,SSE,153,2.0,7.0,89,0.00,,,0.00,meteohub,2013-04-12 14:25:00,
2013-04-12 09:30:00,30.2,27.3,29.82,SSE,154,3.0,7.0,89,0.00,,,0.00,meteohub,2013-04-12 14:30:00,
2013-04-12 09:35:00,30.2,27.3,29.82,SSE,147,6.0,6.0,89,0.00,,,0.00,meteohub,2013-04-12 14:35:00,
2013-04-12 09:40:00,30.4,27.3,29.82,ESE,119,3.0,6.0,88,0.00,,,0.00,meteohub,2013-04-12 14:40:00,
2013-04-12 09:45:00,30.4,27.3,29.82,NE,55,2.0,8.0,88,0.00,,,0.00,meteohub,2013-04-12 14:45:00,
2013-04-12 09:50:00,30.4,27.3,29.82,NE,55,6.0,8.0,88,0.00,,,0.00,meteohub,2013-04-12 14:50:00,
2013-04-12 09:55:00,30.6,27.5,29.82,NE,55,5.0,9.0,88,0.00,,,0.00,meteohub,2013-04-12 14:55:00,
2013-04-12 10:00:00,30.6,27.5,29.83,NE,55,5.0,9.0,88,0.00,,,0.00,meteohub,2013-04-12 15:00:00,
2013-04-12 10:05:00,30.4,27.3,29.83,NE,55,4.0,10.0,88,0.00,,,0.00,meteohub,2013-04-12 15:05:00,
2013-04-12 10:10:00,30.6,27.5,29.83,NE,55,2.0,10.0,88,0.00,,,0.00,meteohub,2013-04-12 15:10:00,
2013-04-12 10:15:00,30.7,27.7,29.83,NE,55,6.0,10.0,88,0.00,,,0.00,meteohub,2013-04-12 15:15:00,
2013-04-12 10:20:00,30.6,27.1,29.83,NE,54,4.0,10.0,87,0.00,,,0.00,meteohub,2013-04-12 15:20:00,
2013-04-12 10:25:00,30.6,27.1,29.83,NE,54,5.0,10.0,87,0.00,,,0.00,meteohub,2013-04-12 15:25:00,
2013-04-12 10:30:00,30.6,27.1,29.83,NE,53,5.0,10.0,87,0.00,,,0.00,meteohub,2013-04-12 15:30:00,
2013-04-12 10:35:00,30.7,27.3,29.83,NE,54,4.0,10.0,87,0.00,,,0.00,meteohub,2013-04-12 15:35:00,
2013-04-12 10:40:00,30.7,27.3,29.83,NE,53,5.0,10.0,87,0.00,,,0.00,meteohub,2013-04-12 15:40:00,
2013-04-12 10:45:00,30.7,27.7,29.83,NE,54,3.0,10.0,88,0.00,,,0.00,meteohub,2013-04-12 15:45:00,
2013-04-12 10:50:00,31.1,28.0,29.83,NE,54,4.0,10.0,88,0.00,,,0.00,meteohub,2013-04-12 15:50:00,
2013-04-12 10:55:00,31.3,28.2,29.83,NE,49,6.0,10.0,88,0.00,,,0.00,meteohub,2013-04-12 15:55:00,
2013-04-12 11:00:00,31.3,28.2,29.83,NE,49,4.0,10.0,88,0.00,,,0.00,meteohub,2013-04-12 16:00:00,
2013-04-12 11:05:00,31.5,28.0,29.84,NNE,21,3.0,10.0,87,0.00,,,0.00,meteohub,2013-04-12 16:05:00,
2013-04-12 11:10:00,31.6,28.2,29.84,North,10,3.0,10.0,87,0.00,,,0.00,meteohub,2013-04-12 16:10:00,
2013-04-12 11:16:00,31.6,28.2,29.84,NNE,25,4.0,10.0,87,0.00,,,0.03,meteohub,2013-04-12 16:16:00,
2013-04-12 11:21:00,31.6,28.2,29.84,North,9,3.0,10.0,87,0.03,,,0.04,meteohub,2013-04-12 16:21:00,
2013-04-12 11:26:00,31.5,28.0,29.84,NE,45,8.0,9.0,87,0.04,,,0.04,meteohub,2013-04-12 16:26:00,
2013-04-12 11:31:00,31.5,28.0,29.84,NNE,18,6.0,11.0,87,0.04,,,0.04,meteohub,2013-04-12 16:31:00,
2013-04-12 11:36:00,31.6,28.2,29.84,North,5,10.0,11.0,87,0.04,,,0.04,meteohub,2013-04-12 16:36:00,
2013-04-12 11:41:00,31.8,28.4,29.84,North,5,6.0,10.0,87,0.04,,,0.05,meteohub,2013-04-12 16:41:00,
2013-04-12 11:46:00,32.2,28.8,29.84,NNE,24,3.0,10.0,87,0.05,,,0.05,meteohub,2013-04-12 16:46:00,
2013-04-12 11:51:00,32.5,29.1,29.84,NNE,31,2.0,10.0,87,0.05,,,0.05,meteohub,2013-04-12 16:51:00,
2013-04-12 11:56:00,32.4,28.6,29.84,NNE,28,6.0,10.0,86,0.05,,,0.06,meteohub,2013-04-12 16:56:00,
2013-04-12 12:01:00,32.7,28.9,29.84,NNE,29,2.0,10.0,86,0.06,,,0.06,meteohub,2013-04-12 17:01:00,
2013-04-12 12:06:00,32.5,28.6,29.84,NE,54,6.0,10.0,85,0.06,,,0.06,meteohub,2013-04-12 17:06:00,
2013-04-12 12:11:00,32.2,28.2,29.84,NE,48,5.0,12.0,85,0.04,,,0.06,meteohub,2013-04-12 17:11:00,
2013-04-12 12:17:00,32.4,28.4,29.84,NNE,22,4.0,12.0,85,0.03,,,0.07,meteohub,2013-04-12 17:17:00,
2013-04-12 12:22:00,32.5,28.6,29.84,North,0,6.0,11.0,85,0.03,,,0.07,meteohub,2013-04-12 17:22:00,
2013-04-12 12:27:00,32.5,28.2,29.84,NE,38,5.0,11.0,84,0.04,,,0.08,meteohub,2013-04-12 17:27:00,
2013-04-12 12:32:00,32.5,28.2,29.85,NE,42,7.0,10.0,84,0.04,,,0.08,meteohub,2013-04-12 17:32:00,
2013-04-12 12:38:00,32.7,28.4,29.85,NNE,28,7.0,9.0,84,0.03,,,0.08,meteohub,2013-04-12 17:38:00,
2013-04-12 12:43:00,32.7,28.2,29.85,ENE,67,7.0,9.0,83,0.03,,,0.08,meteohub,2013-04-12 17:43:00,
2013-04-12 12:48:00,32.7,28.2,29.85,NE,46,6.0,12.0,83,0.04,,,0.09,meteohub,2013-04-12 17:48:00,
2013-04-12 12:53:00,32.5,28.0,29.85,NNE,18,4.0,12.0,83,0.03,,,0.09,meteohub,2013-04-12 17:53:00,
2013-04-12 12:58:00,32.9,28.2,29.85,North,11,11.0,12.0,83,0.03,,,0.09,meteohub,2013-04-12 17:58:00,
2013-04-12 13:04:00,33.3,28.6,29.85,NE,53,4.0,12.0,83,0.03,,,0.09,meteohub,2013-04-12 18:04:00,
2013-04-12 13:09:00,33.4,28.6,29.85,NNE,33,5.0,12.0,82,0.04,,,0.10,meteohub,2013-04-12 18:09:00,
2013-04-12 13:14:00,34.2,29.3,29.85,NNE,19,7.0,12.0,82,0.03,,,0.10,meteohub,2013-04-12 18:14:00,
2013-04-12 13:20:00,34.2,28.9,29.85,NE,41,6.0,12.0,81,0.03,,,0.10,meteohub,2013-04-12 18:20:00,
2013-04-12 13:25:00,33.8,28.2,29.85,NNE,22,5.0,12.0,80,0.04,,,0.10,meteohub,2013-04-12 18:25:00,
2013-04-12 14:26:00,34.2,29.8,29.86,North,0,7.0,10.0,84,0.04,,,0.15,meteohub,2013-04-12 19:26:00,
2013-04-12 14:32:00,34.3,29.7,29.87,NNE,21,6.0,11.0,83,0.04,,,0.15,meteohub,2013-04-12 19:32:00,
2013-04-12 14:37:00,34.3,29.7,29.87,NE,34,9.0,12.0,83,0.04,,,0.16,meteohub,2013-04-12 19:37:00,
2013-04-12 14:42:00,34.2,29.3,29.87,NNE,32,11.0,12.0,82,0.04,,,0.16,meteohub,2013-04-12 19:42:00,
2013-04-12 14:47:00,34.0,29.1,29.87,NNE,29,5.0,12.0,82,0.04,,,0.16,meteohub,2013-04-12 19:47:00,
2013-04-12 14:52:00,34.0,29.1,29.87,NE,37,5.0,12.0,82,0.03,,,0.16,meteohub,2013-04-12 19:52:00,
2013-04-12 14:57:00,34.0,28.8,29.87,NE,36,6.0,12.0,81,0.04,,,0.17,meteohub,2013-04-12 19:57:00,
2013-04-12 15:02:00,34.2,28.9,29.87,NNE,19,10.0,12.0,81,0.04,,,0.17,meteohub,2013-04-12 20:02:00,
2013-04-12 15:07:00,34.3,29.1,29.87,NNE,12,5.0,11.0,81,0.03,,,0.17,meteohub,2013-04-12 20:07:00,
2013-04-12 15:12:00,34.3,29.1,29.87,NNE,12,4.0,11.0,81,0.03,,,0.17,meteohub,2013-04-12 20:12:00,
2013-04-12 15:18:00,34.7,29.5,29.87,North,355,4.0,11.0,81,0.03,,,0.17,meteohub,2013-04-12 20:18:00,
2013-04-12 15:23:00,34.9,29.3,29.87,NNW,331,4.0,9.0,80,0.03,,,0.18,meteohub,2013-04-12 20:23:00,
2013-04-12 15:28:00,34.7,28.6,29.87,North,9,5.0,13.0,78,0.03,,,0.18,meteohub,2013-04-12 20:28:00,
2013-04-12 15:33:00,34.5,28.4,29.87,North,5,4.0,13.0,78,0.02,,,0.18,meteohub,2013-04-12 20:33:00,
2013-04-12 15:38:00,34.5,28.4,29.87,North,355,4.0,13.0,78,0.02,,,0.18,meteohub,2013-04-12 20:38:00,
2013-04-12 15:43:00,34.5,28.0,29.88,North,5,6.0,11.0,77,0.02,,,0.18,meteohub,2013-04-12 20:43:00,
2013-04-12 15:48:00,34.5,28.0,29.88,NNE,30,4.0,15.0,77,0.02,,,0.18,meteohub,2013-04-12 20:48:00,
2013-04-12 15:53:00,34.5,28.0,29.88,NNE,29,7.0,15.0,77,0.02,,,0.18,meteohub,2013-04-12 20:53:00,
2013-04-12 15:58:00,34.5,28.4,29.88,North,9,8.0,10.0,78,0.01,,,0.18,meteohub,2013-04-12 20:58:00,
2013-04-12 16:03:00,34.5,28.0,29.88,NE,35,5.0,10.0,77,0.02,,,0.18,meteohub,2013-04-12 21:03:00,
2013-04-12 16:08:00,34.5,28.0,29.88,NNE,18,4.0,11.0,77,0.02,,,0.19,meteohub,2013-04-12 21:08:00,
2013-04-12 16:13:00,34.3,28.6,29.88,NNE,23,9.0,11.0,79,0.02,,,0.19,meteohub,2013-04-12 21:13:00,
2013-04-12 16:18:00,34.2,28.9,29.88,NNE,14,4.0,12.0,81,0.02,,,0.19,meteohub,2013-04-12 21:18:00,
2013-04-12 16:23:00,34.0,29.1,29.88,NE,56,3.0,12.0,82,0.01,,,0.19,meteohub,2013-04-12 21:23:00,
2013-04-12 16:28:00,34.2,29.3,29.88,NNE,32,1.0,12.0,82,0.01,,,0.19,meteohub,2013-04-12 21:28:00,
2013-04-12 16:33:00,34.5,29.7,29.88,NNE,32,4.0,10.0,82,0.01,,,0.19,meteohub,2013-04-12 21:33:00,
2013-04-12 16:38:00,34.5,29.3,29.88,NE,34,4.0,7.0,81,0.01,,,0.19,meteohub,2013-04-12 21:38:00,
2013-04-12 16:43:00,34.7,29.1,29.88,NE,37,4.0,7.0,80,0.02,,,0.20,meteohub,2013-04-12 21:43:00,
2013-04-12 16:48:00,35.1,29.8,29.89,North,355,2.0,10.0,81,0.02,,,0.20,meteohub,2013-04-12 21:48:00,
2013-04-12 16:53:00,35.1,29.5,29.89,NE,34,7.0,10.0,80,0.02,,,0.20,meteohub,2013-04-12 21:53:00,
2013-04-12 16:58:00,34.5,29.3,29.89,NNE,26,3.0,10.0,81,0.03,,,0.21,meteohub,2013-04-12 21:58:00,
2013-04-12 17:03:00,34.5,29.7,29.89,NE,35,6.0,11.0,82,0.02,,,0.21,meteohub,2013-04-12 22:03:00,
2013-04-12 17:08:00,34.9,30.2,29.89,North,0,5.0,11.0,83,0.02,,,0.21,meteohub,2013-04-12 22:08:00,
2013-04-12 17:13:00,34.9,30.0,29.89,NNE,26,4.0,11.0,82,0.03,,,0.21,meteohub,2013-04-12 22:13:00,
2013-04-12 17:18:00,34.9,30.0,29.89,ENE,63,3.0,11.0,82,0.03,,,0.22,meteohub,2013-04-12 22:18:00,
2013-04-12 17:23:00,34.9,30.0,29.89,NNE,26,5.0,11.0,82,0.03,,,0.22,meteohub,2013-04-12 22:23:00,
2013-04-12 17:28:00,34.3,29.5,29.90,NNE,30,4.0,10.0,82,0.03,,,0.22,meteohub,2013-04-12 22:28:00,
2013-04-12 17:33:00,34.3,29.7,29.90,NNE,18,2.0,10.0,83,0.04,,,0.23,meteohub,2013-04-12 22:33:00,
2013-04-12 17:38:00,34.3,29.7,29.90,NE,37,6.0,10.0,83,0.03,,,0.23,meteohub,2013-04-12 22:38:00,
2013-04-12 17:43:00,34.2,29.8,29.90,NE,34,5.0,10.0,84,0.03,,,0.23,meteohub,2013-04-12 22:43:00,
2013-04-12 17:48:00,34.0,29.7,29.90,NNE,31,3.0,10.0,84,0.03,,,0.23,meteohub,2013-04-12 22:48:00,
2013-04-12 17:53:00,34.3,30.4,29.90,NNE,18,2.0,10.0,85,0.03,,,0.23,meteohub,2013-04-12 22:53:00,
2013-04-12 17:58:00,34.3,30.0,29.90,NNE,29,3.0,11.0,84,0.03,,,0.23,meteohub,2013-04-12 22:58:00,
2013-04-12 18:03:00,34.3,30.0,29.91,NNE,30,4.0,11.0,84,0.03,,,0.24,meteohub,2013-04-12 23:03:00,
2013-04-12 18:08:00,34.3,30.0,29.91,NNE,14,7.0,11.0,84,0.03,,,0.24,meteohub,2013-04-12 23:08:00,
2013-04-12 18:13:00,34.3,30.0,29.91,NNE,19,7.0,10.0,84,0.02,,,0.24,meteohub,2013-04-12 23:13:00,
2013-04-12 18:18:00,34.2,29.8,29.91,NNE,32,3.0,10.0,84,0.02,,,0.24,meteohub,2013-04-12 23:18:00,
2013-04-12 18:23:00,34.2,29.8,29.91,NNE,32,7.0,10.0,84,0.02,,,0.24,meteohub,2013-04-12 23:23:00,
2013-04-12 18:28:00,34.0,29.7,29.91,NNE,26,4.0,10.0,84,0.02,,,0.24,meteohub,2013-04-12 23:28:00,
2013-04-12 18:33:00,34.0,29.3,29.91,NNE,15,3.0,10.0,83,0.02,,,0.25,meteohub,2013-04-12 23:33:00,
2013-04-12 18:38:00,34.2,29.3,29.92,NNE,26,3.0,8.0,82,0.02,,,0.25,meteohub,2013-04-12 23:38:00,
2013-04-12 18:43:00,34.0,28.8,29.91,NE,51,4.0,11.0,81,0.02,,,0.25,meteohub,2013-04-12 23:43:00,
2013-04-12 18:49:00,34.2,28.9,29.92,North,10,5.0,11.0,81,0.02,,,0.25,meteohub,2013-04-12 23:49:00,
2013-04-12 18:54:00,34.2,28.9,29.92,NNE,15,2.0,11.0,81,0.02,,,0.25,meteohub,2013-04-12 23:54:00,
2013-04-12 18:59:00,34.2,29.3,29.92,NNE,15,4.0,9.0,82,0.01,,,0.25,meteohub,2013-04-12 23:59:00,
2013-04-12 19:04:00,34.0,29.1,29.92,NNE,16,3.0,6.0,82,0.01,,,0.25,meteohub,2013-04-13 00:04:00,
2013-04-12 19:09:00,34.0,29.3,29.92,NNE,17,1.0,6.0,83,0.01,,,0.25,meteohub,2013-04-13 00:09:00,
2013-04-12 19:14:00,33.8,29.1,29.92,NNE,17,4.0,6.0,83,0.01,,,0.25,meteohub,2013-04-13 00:14:00,
2013-04-12 19:19:00,33.8,29.1,29.92,NNE,17,0.0,7.0,83,0.01,,,0.25,meteohub,2013-04-13 00:19:00,
2013-04-12 19:24:00,33.6,28.9,29.92,NNE,17,4.0,7.0,83,0.01,,,0.25,meteohub,2013-04-13 00:24:00,
2013-04-12 19:29:00,33.6,28.8,29.93,NNE,21,4.0,6.0,82,0.01,,,0.25,meteohub,2013-04-13 00:29:00,
2013-04-12 19:34:00,33.6,28.4,29.93,NNE,25,5.0,6.0,81,0.00,,,0.25,meteohub,2013-04-13 00:34:00,
2013-04-12 19:39:00,33.6,28.0,29.93,NE,35,5.0,9.0,80,0.00,,,0.25,meteohub,2013-04-13 00:39:00,
2013-04-12 19:44:00,33.6,27.9,29.93,NE,41,6.0,11.0,79,0.00,,,0.25,meteohub,2013-04-13 00:44:00,
2013-04-12 19:49:00,33.6,27.9,29.93,NE,44,2.0,11.0,79,0.00,,,0.25,meteohub,2013-04-13 00:49:00,
2013-04-12 19:54:00,33.6,27.9,29.93,NE,44,2.0,11.0,79,0.00,,,0.25,meteohub,2013-04-13 00:54:00,
2013-04-12 19:59:00,33.4,27.7,29.93,NE,44,3.0,7.0,79,0.00,,,0.25,meteohub,2013-04-13 00:59:00,
2013-04-12 20:04:00,33.3,27.7,29.93,NE,44,4.0,7.0,80,0.00,,,0.25,meteohub,2013-04-13 01:04:00,
2013-04-12 20:09:00,33.1,27.9,29.93,NE,45,6.0,7.0,81,0.00,,,0.25,meteohub,2013-04-13 01:09:00,
2013-04-12 20:14:00,32.5,28.0,29.93,NNE,28,5.0,7.0,83,0.00,,,0.25,meteohub,2013-04-13 01:14:00,
2013-04-12 20:19:00,32.2,28.2,29.94,NE,51,3.0,10.0,85,0.00,,,0.25,meteohub,2013-04-13 01:19:00,
2013-04-12 20:24:00,31.8,28.0,29.94,NE,51,2.0,10.0,86,0.00,,,0.25,meteohub,2013-04-13 01:24:00,
2013-04-12 20:29:00,31.8,28.4,29.94,NE,51,3.0,10.0,87,0.00,,,0.25,meteohub,2013-04-13 01:29:00,
2013-04-12 20:34:00,31.6,28.2,29.94,NE,51,4.0,7.0,87,0.00,,,0.25,meteohub,2013-04-13 01:34:00,
2013-04-12 20:39:00,31.6,28.6,29.94,NE,51,1.0,5.0,88,0.00,,,0.25,meteohub,2013-04-13 01:39:00,
2013-04-12 20:44:00,31.6,28.6,29.94,NE,51,2.0,5.0,88,0.00,,,0.25,meteohub,2013-04-13 01:44:00,
2013-04-12 20:49:00,31.5,28.4,29.94,NE,51,2.0,5.0,88,0.00,,,0.25,meteohub,2013-04-13 01:49:00,
2013-04-12 20:54:00,31.5,28.4,29.94,NE,51,3.0,4.0,88,0.00,,,0.25,meteohub,2013-04-13 01:54:00,
2013-04-12 20:59:00,31.5,28.6,29.94,NE,51,2.0,5.0,89,0.00,,,0.25,meteohub,2013-04-13 01:59:00,
2013-04-12 21:04:00,31.5,28.6,29.95,NE,51,2.0,5.0,89,0.00,,,0.25,meteohub,2013-04-13 02:04:00,
2013-04-12 21:09:00,31.5,28.6,29.95,NE,50,2.0,6.0,89,0.00,,,0.25,meteohub,2013-04-13 02:09:00,
2013-04-12 21:14:00,31.3,28.4,29.95,NE,49,3.0,6.0,89,0.00,,,0.25,meteohub,2013-04-13 02:14:00,
2013-04-12 21:19:00,31.3,28.4,29.95,NE,50,3.0,6.0,89,0.00,,,0.25,meteohub,2013-04-13 02:19:00,
2013-04-12 21:25:00,31.3,28.4,29.95,NE,49,3.0,6.0,89,0.00,,,0.25,meteohub,2013-04-13 02:25:00,
2013-04-12 21:30:00,31.3,28.4,29.96,NE,51,3.0,5.0,89,0.00,,,0.25,meteohub,2013-04-13 02:30:00,
2013-04-12 21:35:00,31.3,28.4,29.96,NE,51,4.0,6.0,89,0.00,,,0.25,meteohub,2013-04-13 02:35:00,
2013-04-12 21:40:00,31.1,28.2,29.96,NE,51,3.0,6.0,89,0.00,,,0.25,meteohub,2013-04-13 02:40:00,
2013-04-12 21:45:00,31.1,28.2,29.96,NE,51,1.0,6.0,89,0.00,,,0.25,meteohub,2013-04-13 02:45:00,
2013-04-12 21:50:00,31.1,28.2,29.96,NE,51,1.0,6.0,89,0.00,,,0.25,meteohub,2013-04-13 02:50:00,
2013-04-12 21:55:00,30.9,28.0,29.96,NE,51,0.0,6.0,89,0.00,,,0.25,meteohub,2013-04-13 02:55:00,
2013-04-12 22:00:00,30.9,28.0,29.96,NE,51,4.0,6.0,89,0.00,,,0.25,meteohub,2013-04-13 03:00:00,
2013-04-12 22:05:00,30.9,28.0,29.96,NE,51,2.0,6.0,89,0.00,,,0.25,meteohub,2013-04-13 03:05:00,
2013-04-12 22:10:00,30.9,28.0,29.96,NE,51,2.0,6.0,89,0.00,,,0.25,meteohub,2013-04-13 03:10:00,
2013-04-12 22:15:00,30.9,28.0,29.96,NE,51,0.0,5.0,89,0.00,,,0.25,meteohub,2013-04-13 03:15:00,
2013-04-12 22:20:00,30.9,28.0,29.96,NE,51,0.0,5.0,89,0.00,,,0.25,meteohub,2013-04-13 03:20:00,
2013-04-12 22:25:00,30.9,28.4,29.96,NE,51,4.0,4.0,90,0.00,,,0.25,meteohub,2013-04-13 03:25:00,
2013-04-12 22:30:00,30.7,28.2,29.96,NE,51,2.0,5.0,90,0.00,,,0.25,meteohub,2013-04-13 03:30:00,
2013-04-12 22:35:00,30.7,28.2,29.96,NE,51,2.0,5.0,90,0.00,,,0.25,meteohub,2013-04-13 03:35:00,
2013-04-12 22:40:00,30.7,28.2,29.96,NE,51,2.0,5.0,90,0.00,,,0.25,meteohub,2013-04-13 03:40:00,
2013-04-12 22:45:00,30.7,28.2,29.96,NE,51,2.0,5.0,90,0.00,,,0.25,meteohub,2013-04-13 03:45:00,
2013-04-12 22:50:00,30.7,28.2,29.96,NE,51,0.0,5.0,90,0.00,,,0.25,meteohub,2013-04-13 03:50:00,
2013-04-12 22:55:00,30.6,28.0,29.96,NE,51,3.0,5.0,90,0.00,,,0.25,meteohub,2013-04-13 03:55:00,
2013-04-12 23:00:00,30.6,28.0,29.96,NE,51,3.0,5.0,90,0.00,,,0.25,meteohub,2013-04-13 04:00:00,
2013-04-12 23:01:00,30.6,28.0,29.96,NE,51,2.0,5.0,90,0.00,,,0.25,meteohub,2013-04-13 04:01:00,
2013-04-12 23:06:00,30.6,28.0,29.96,NE,51,1.0,4.0,90,0.00,,,0.25,meteohub,2013-04-13 04:06:00,
2013-04-12 23:11:00,30.6,28.0,29.96,NE,51,1.0,4.0,90,0.00,,,0.25,meteohub,2013-04-13 04:11:00,
2013-04-12 23:16:00,30.4,27.9,29.96,NE,51,0.0,4.0,90,0.00,,,0.25,meteohub,2013-04-13 04:16:00,
2013-04-12 23:22:00,30.4,27.9,29.96,NE,51,2.0,4.0,90,0.00,,,0.25,meteohub,2013-04-13 04:22:00,
2013-04-12 23:27:00,30.4,27.9,29.96,NE,51,0.0,3.0,90,0.00,,,0.25,meteohub,2013-04-13 04:27:00,
2013-04-12 23:32:00,30.4,27.9,29.96,NE,51,0.0,3.0,90,0.00,,,0.25,meteohub,2013-04-13 04:32:00,
2013-04-12 23:37:00,30.4,27.9,29.96,NE,51,0.0,3.0,90,0.00,,,0.25,meteohub,2013-04-13 04:37:00,
2013-04-12 23:42:00,30.2,27.7,29.96,NE,51,0.0,3.0,90,0.00,,,0.25,meteohub,2013-04-13 04:42:00,
2013-04-12 23:47:00,30.2,27.7,29.96,NE,51,1.0,3.0,90,0.00,,,0.25,meteohub,2013-04-13 04:47:00,
2013-04-12 23:52:00,30.2,27.7,29.96,NE,51,0.0,3.0,90,0.00,,,0.25,meteohub,2013-04-13 04:52:00,
2013-04-12 23:57:00,30.2,27.7,29.96,NE,51,1.0,3.0,90,0.00,,,0.25,meteohub,2013-04-13 04:57:00,